{"data":{"norad_id":58707,"intl_designator":"2024-002C","name":"STARLINK-11077 [DTC]","alt_names":[],"object_type":"PAYLOAD","status":"ACTIVE","operator":null,"country":"US","launch_date":"2024-01-03","launch_site_code":"AFWTR","launch_vehicle":null,"mission":null,"orbit_class":"UNKNOWN","rcs_meters":null,"size_class":null,"mass_kg":null,"dimensions":null,"purposes":["comms"],"wikipedia_slug":null,"has_3d_model":false,"image_url":null,"decayed_at":null,"tle_current":{"epoch":"2026-09-20T15:08:47.464224Z","epoch_age_seconds":138508,"freshness":"FRESH","line1":"1 58707U 24002C   26263.63110491 -.00000366  00000+0  18333-5 0  9997","line2":"2 58707  53.1594  33.1236 0000706  77.2873 282.8224 15.69701983157056","mean_motion":15.69701983,"eccentricity":7.06e-5,"inclination_deg":53.1594,"raan_deg":33.1236,"arg_perigee_deg":77.2873,"mean_anomaly_deg":282.8224,"bstar":1.8333e-6,"rev_number":15705,"period_min":91.737158747031,"perigee_km":359.27399730222,"apogee_km":360.22538690314,"semimajor_km":6737.8866921027,"source":"CELESTRAK","updated_at":"2026-09-21T09:00:33.947014Z"}}}